Weather in Kirkby Lonsdale

United Kingdom     54°12′12″N   2°35′48″W
temp.,
°C
wind,
m/s
gust,
m/s
humid.,
%
clouds,
%
prec.,
mm/h
press.,
hPa
HPBL,
m
13 april, tue
tue1301:00−2sse118210 0.0 103210
04:00−2sse118112 0.0 103210
07:00−1sse117892 0.0 103311
10:00+4wsw227538 0.0 1033450
13:00+6w337089 0.1 10331036
16:00+6wsw447779 0.4 1032771
19:00+5wsw128765 0.7 103273
22:00+3ene119087 0.0 103310
14 april, wed
wed1401:00+4nne018297 0.0 103310
04:00+3nnw118089 0.0 103310
07:00+4nne117743 0.0 103410
10:00+7nw12675 0.0 1034798
13:00+9nnw126090 0.3 10341351
16:00+9nnw126382 0.8 10331035
19:00+7e127811 1.4 103468
22:00+1e22877 0.0 103611
15 april, thu
thu1501:000e21875 0.0 103610
04:00−1e21855 0.0 103510
07:000e22824 0.0 103615
10:00+6ene23605 0.0 1035736
13:00+8ene445039 0.0 10341517
16:00+9e334988 0.0 10331732
19:00+6e57695 0.0 1033343
22:000e34874 0.0 103569
16 april, fri
fri1601:00−1ene22915 0.0 103513
04:00−1e21915 0.0 103510
07:00−1e11845 0.0 103515
10:00+5sse23570 0.0 1034797
13:00+8s22485 0.0 10331391
16:00+9se234754 0.0 10321717
19:00+7ese236758 0.0 103273
22:00+1e33845 0.0 103440
17 april, sat
sat1701:00−1ene22834 0.0 103412
04:00−1ene22760 0.0 103311
07:000ene22690 0.0 103221
10:00+6ese345941 0.0 1031875
13:00+9se455127 0.0 10291484
16:00+10sse455263 0.0 10271663
19:00+8se2370100 0.0 102656
22:00+5ese2276100 0.0 102755